(186) Celuta
ephemeris date magn radius delta ra dec elong phase
Today5 Feb 202513.82.118 AU2.665 AU00h08m+02°33'46.9°19.9°
Opposition15 Jan 202612.92.629 AU1.685 AU08h07m+41°12'159.5°7.5°
(186) Celuta - 2025-02-05
astro.vanbuitenen.nl


 
-1 year
-1 month
-1 day
Now
+1 day
+1 month
+1 year

The interactive orbit chart above shows the body's path through the solar system and its position at the given date. Green and blue lines are shown perpendicular to the ecliptic plane: Green if the path is above the ecliptic plane, blue if it is below. (Left-click and drag to rotate the view; Right-click and drag to move the view; Use scroll wheel to zoom in our out.)

The orbital elements of Celuta are:

            e (Eccentricity)                : 0.1493048
            a (Semimajor axis)              : 2.3618161
            i (Inclination)                 : 13.18567
            Ω (Longitude of ascending node) : 14.71077
            ω (Argument of perihelion)      : 315.58705
            M (Mean anomaly)                : 9.90206
            Epoch                           : 2024 Oct 17

            L (Longitude of perihelion)     : -28.93723
            B (Latitude of perihelion)      : -9.18572
            P (Orbital period in years)     : 3.63            
        

The light curve chart below shows the estimated development of the minor planet's magnitude.


The all-sky chart below shows the path of the minor planet over the same period as the light curve. The current position is marked yellow.





The following chart shows the path of the minor planet in the next few days. The field of view is optimized for (~10x50) binoculars and finderscopes. A more printer-friendly version of the same chart can be found below.




Ephemerides:
Date       Time       RA (2000)    DEC (2000)    delta   radius  elong  phase   PA    magn
2025-02-05 00:00 UT   00 08 28.5   +02 33 43     2.665    2.118   46.9   19.9    65   13.8 
2025-02-05 14:13 UT   00 09 31.5   +02 42 40     2.671    2.119   46.6   19.8    65   13.8 
2025-02-06 00:00 UT   00 10 14.9   +02 48 50     2.675    2.119   46.4   19.7    65   13.8 
2025-02-07 00:00 UT   00 12 01.5   +03 03 55     2.685    2.121   45.9   19.5    65   13.9 
2025-02-08 00:00 UT   00 13 48.2   +03 18 60     2.695    2.122   45.4   19.3    65   13.9 
2025-02-09 00:00 UT   00 15 35.1   +03 34 03     2.705    2.123   44.9   19.1    65   13.9 
2025-02-10 00:00 UT   00 17 22.2   +03 49 05     2.715    2.125   44.4   19.0    65   13.9 
2025-02-11 00:00 UT   00 19 09.4   +04 04 07     2.724    2.126   43.9   18.8    65   13.9 
2025-02-12 00:00 UT   00 20 56.9   +04 19 07     2.734    2.127   43.4   18.6    65   13.9 
2025-02-13 00:00 UT   00 22 44.4   +04 34 06     2.743    2.129   42.9   18.4    65   13.9 
2025-02-14 00:00 UT   00 24 32.2   +04 49 03     2.753    2.130   42.4   18.2    65   13.9 
2025-02-15 00:00 UT   00 26 20.1   +05 03 59     2.762    2.132   41.9   18.0    64   13.9 
2025-02-16 00:00 UT   00 28 08.2   +05 18 54     2.772    2.133   41.4   17.8    64   13.9 
2025-02-17 00:00 UT   00 29 56.5   +05 33 48     2.781    2.134   40.9   17.6    64   13.9 
2025-02-18 00:00 UT   00 31 44.9   +05 48 40     2.790    2.136   40.4   17.5    64   13.9 
2025-02-19 00:00 UT   00 33 33.6   +06 03 31     2.799    2.137   39.9   17.3    64   13.9 
2025-02-20 00:00 UT   00 35 22.3   +06 18 20     2.808    2.139   39.4   17.1    64   13.9 
2025-02-21 00:00 UT   00 37 11.3   +06 33 08     2.817    2.140   38.9   16.9    64   13.9 


    Terminology:
            
    delta:  distance between minor planet and earth in AU
    radius: distance between minor planet and sun in AU
    magn:   magnitude (brightness) estimate    
    ra:     right ascension in hours (24h = 360deg)
    dec:    declination in degrees
    elong:  elongation in degrees (angle sun-earth-minor planet)    
    phase:  phase angle in degrees (angle sun-minor planet-earth)        
    AU:     Astronomical Unit (mean distance between earth and sun: 149597870.7 km
    

Orbital elements provided by the MPC (Minor Planet Center).
Calculations by a modified version of AAPlus, a C# implementation of the AA+ project by PJ Naughter from the algorithms presented in the book "Astronomical Algorithms" by Jean Meeus.
NGC2000 dso catalog and star labels from VizieR as provided by the Strasbourg astronomical Data Center.
Tycho2 catalog from the ESO archive.